Location: Celina Division
(33.3022°N, 96.7580°W)
Time: 12:53:51
(UTC+00:00)

Cosmos 2297 Rocket - Pass Details

Date: 08 December 2021
Orbit: 838 x 845 km, 71.0° (Epoch: 28 January)

Event Time Altitude Azimuth Distance (km) Brightness Sun altitude
Rises 12:28:08 0° 351° (N) 3,404 5.1 -10.5°
Reaches altitude 10° 12:30:56 10° 3° (N) 2,467 4.4 -9.9°
Maximum altitude 12:35:47 29° 62° (ENE) 1,516 4.0 -9.0°
Drops below altitude 10° 12:40:36 10° 121° (ESE) 2,458 6.3 -8.1°
Sets 12:43:22 0° 132° (SE) 3,390 6.9 -7.5°
